Wind_Speed
16 13 13 12 12 11 9 7 3 2 0 3 5 7 6 7 7 4 5 3 4 5 5 3 3 5 5 8 9 10 10 11 14 12 11 11 8 13 14 13 15 14 12
17 16 17 12 12 11 10 7 7 4 3 1 3 5 3 5 4 5 1 7 5 8 8 7 6 5 7 9 13 14 14 14 14 12 11 9 12 14 12 12 13 14 13
17 14 13 13 13 12 10 11 9 6 3 3 1 3 3 4 2 1 1 4 5 7 8 10 10 12 14 15 16 16 14 10 11 11 11 11 13 13 14 14 15 14 14
15 17 14 14 14 14 12 10 9 6 6 4 4 2 1 1 2 2 2 4 4 6 9 9 13 16 18 17 18 17 14 12 12 12 12 13 14 15 15 15 15 16 16
20 17 15 13 16 13 17 15 11 10 8 7 5 4 4 3 4 4 5 4 6 6 5 12 15 15 16 17 18 17 13 12 12 13 14 15 16 16 16 17 17 16 16
18 19 15 15 20 18 17 17 16 14 9 8 6 8 7 6 5 7 7 7 8 8 7 8 11 13 14 17 18 18 18 12 14 15 15 15 16 17 18 18 18 18 18
21 21 19 19 24 17 18 18 19 17 10 9 7 9 10 13 11 7 9 9 9 11 10 11 10 7 12 17 18 18 16 18 21 15 15 16 17 18 19 18 18 20 21
19 19 20 20 22 19 21 22 21 18 12 11 8 9 7 8 11 11 9 11 12 11 12 12 12 11 12 12 16 20 24 25 22 19 19 18 18 17 18 19 21 22 23
26 22 24 24 23 20 21 23 24 21 14 12 11 8 6 6 13 10 11 11 11 12 12 11 13 14 14 15 16 17 21 22 23 24 22 21 20 19 21 23 25 26 27
26 25 30 28 22 20 27 23 23 20 17 15 12 11 13 13 9 10 6 11 13 11 12 13 14 15 16 16 18 20 26 30 27 23 24 24 25 26 26 27 28 29 30
28 28 27 29 26 32 27 25 23 22 16 17 23 18 14 12 11 15 16 11 12 13 14 13 14 14 18 16 15 21 25 27 27 28 29 30 31 31 29 27 27 27 28
24 23 23 28 32 30 27 25 22 21 25 22 21 19 15 9 13 15 19 17 17 17 17 17 18 17 14 15 15 22 28 30 30 30 32 31 31 32 31 28 26 26 27
22 23 24 23 29 28 26 21 25 25 24 24 21 19 14 14 14 15 15 17 18 17 17 17 17 17 16 16 17 22 27 31 33 32 33 33 32 32 31 30 28 26 26
24 28 25 23 23 26 27 29 23 27 29 23 21 17 16 10 13 15 16 16 18 18 18 18 16 17 18 18 19 23 28 28 26 31 36 34 33 31 31 30 29 27 26
27 25 21 22 27 30 30 21 30 29 24 23 21 17 16 10 15 16 16 17 16 20 20 17 18 17 19 19 20 21 22 25 30 35 33 31 31 28 29 30 30 30 27
23 20 19 22 21 21 25 27 29 29 25 20 15 16 8 12 17 17 17 17 17 20 25 20 20 20 20 22 22 27 23 28 30 30 33 34 34 32 30 29 30 30 28
18 18 21 20 18 26 30 28 24 23 18 13 14 11 11 18 20 20 19 19 20 20 25 26 23 23 24 23 24 25 24 24 28 28 29 33 35 34 31 30 28 28 27
17 16 17 20 23 25 24 21 22 18 12 15 11 12 18 19 22 22 23 24 24 24 26 29 29 28 28 26 26 25 25 26 27 27 29 33 32 31 29 27 25 26 25
15 16 17 18 18 19 20 17 12 11 12 14 14 19 21 21 24 25 24 26 28 28 29 29 31 29 29 27 27 26 25 25 25 27 26 27 27 29 30 26 26 27 25
13 11 13 14 15 14 13 10 13 14 15 16 20 23 23 23 25 26 28 30 31 32 33 33 32 33 32 28 27 26 26 26 25 23 25 25 25 25 24 26 27 26 25
10 10 12 10 10 8 9 13 16 18 18 19 16 19 22 23 26 29 32 37 36 34 34 33 33 31 31 28 25 25 27 25 25 22 25 22 21 21 23 21 22 22 17
5 4 5 5 6 11 14 15 17 18 18 17 20 21 23 27 30 33 35 36 37 38 42 43 38 34 32 28 25 26 25 23 25 21 22 24 21 22 20 19 21 26 28
1 3 6 8 10 13 14 12 12 17 19 20 22 24 26 28 31 33 35 37 39 40 40 42 45 44 36 30 26 22 21 22 25 23 22 27 21 23 20 19 21 26 30
2 4 5 4 5 8 14 18 20 21 22 22 23 26 29 32 34 35 37 39 40 41 38 38 38 37 40 32 25 22 20 21 23 22 19 26 22 23 20 21 21 23 24
2 2 1 2 4 5 15 21 23 22 24 26 26 27 29 33 35 36 40 44 44 44 43 39 37 36 31 30 28 22 19 20 24 22 19 21 21 19 20 23 18 19 22
2 1 2 4 7 7 15 22 26 28 29 31 31 31 33 34 37 39 40 40 40 41 38 36 33 34 35 31 36 35 27 25 23 23 18 18 18 18 24 19 11 22 21
Wind_Direction
166 162 167 176 171 182 180 177 196 219 42 55 27 19 30 30 42 71 293 295 229 218 246 247 303 311 319 319 325 331 332 330 333 345 344 346 337 333 341 338 339 346 342
186 175 189 183 190 185 188 193 189 183 143 357 358 13 18 18 21 109 262 306 230 199 233 229 252 247 272 296 307 312 315 312 319 328 331 331 330 328 331 330 333 334 333
206 195 195 193 199 199 202 191 217 200 182 176 194 356 5 12 356 61 175 269 313 241 246 260 264 270 274 278 284 291 299 303 311 316 316 317 321 321 321 325 322 324 326
211 206 202 214 220 211 215 207 204 195 204 206 211 202 245 287 282 293 230 184 218 274 299 286 268 268 269 271 274 279 283 293 301 306 309 306 306 306 306 309 312 311 312
222 222 218 227 226 215 215 228 211 197 218 216 226 237 262 242 273 276 242 227 234 225 239 292 286 295 279 279 281 278 278 287 296 301 303 300 301 303 302 304 305 303 304
231 232 225 223 228 227 235 228 229 226 209 225 226 254 261 254 263 262 252 254 254 258 277 276 291 308 306 303 301 296 283 282 293 295 292 292 295 296 297 301 300 299 300
240 235 233 231 240 233 227 234 237 232 221 226 235 260 265 264 271 246 250 249 255 263 273 274 271 275 297 306 306 295 285 276 293 289 290 291 291 291 294 295 293 294 294
226 239 236 229 239 220 230 237 234 233 213 221 228 253 279 278 250 250 241 249 255 255 265 275 264 272 285 284 284 295 296 288 291 294 294 292 291 290 289 289 291 291 291
241 253 249 224 238 221 236 237 231 229 211 227 226 236 270 256 306 283 247 243 247 261 265 268 268 277 281 287 286 294 281 289 296 296 292 287 284 286 287 289 290 289 288
240 248 254 238 231 227 232 241 233 230 220 230 234 229 267 274 273 285 274 267 246 260 261 265 268 273 280 282 280 281 276 284 291 296 296 292 289 291 292 290 286 284 282
244 250 249 239 229 230 241 238 233 228 224 222 223 244 273 289 264 268 282 275 263 267 276 265 265 264 278 278 278 274 271 275 286 294 296 296 295 294 294 292 289 287 285
253 251 239 231 235 245 239 236 223 227 227 239 251 258 264 271 274 279 277 275 276 274 274 268 266 274 271 274 272 272 274 281 288 293 295 298 298 297 296 293 290 287 285
239 247 248 259 249 249 237 225 220 232 237 243 249 256 250 247 267 268 268 276 280 277 273 270 269 266 271 271 274 270 280 286 293 297 300 305 300 299 298 295 292 289 286
242 255 258 262 260 248 219 226 236 236 241 239 250 259 261 280 265 267 272 278 280 277 275 275 271 268 271 271 270 269 280 287 289 290 292 298 298 298 297 295 292 289 286
244 260 264 260 250 237 236 256 248 239 245 250 253 260 284 253 258 263 266 268 270 278 277 278 280 275 273 272 272 271 275 279 279 284 295 295 297 298 295 295 295 292 288
258 261 265 255 250 234 237 246 241 236 246 258 269 289 264 253 259 261 265 268 267 271 279 279 280 279 277 274 270 278 280 285 290 296 297 299 300 301 299 300 297 293 289
258 260 259 248 233 230 235 236 238 248 255 273 288 281 258 258 256 260 261 264 266 269 275 281 279 280 279 277 280 277 279 282 286 287 288 290 294 301 302 300 296 295 294
257 251 246 250 244 245 242 243 240 243 274 289 286 269 260 261 262 260 260 262 266 269 272 277 279 279 278 278 278 278 273 283 283 285 285 287 301 303 308 312 312 310 298
238 235 240 246 242 231 230 234 243 275 288 290 275 264 264 265 263 259 262 266 269 273 272 272 276 279 278 278 279 278 276 282 281 287 291 296 298 298 310 316 318 318 311
226 225 238 241 238 236 234 237 279 286 282 280 270 262 267 269 264 264 267 269 271 272 271 270 270 274 274 277 277 282 277 279 280 283 286 288 293 294 303 309 310 308 312
213 225 229 218 215 212 263 280 283 280 281 296 290 282 277 271 269 266 267 269 270 275 276 276 272 270 270 276 267 279 277 276 282 286 287 289 291 289 293 299 301 301 293
203 227 205 199 246 274 275 281 282 284 289 283 280 280 277 276 278 280 279 278 277 275 273 272 273 271 269 272 268 276 276 277 283 282 285 285 289 291 295 297 294 292 289
167 215 244 260 265 279 288 283 290 287 286 285 284 284 284 282 280 280 280 281 280 275 274 272 269 268 270 269 267 271 270 274 277 281 283 285 291 290 294 296 295 295 297
218 256 285 318 351 332 297 293 287 286 290 289 288 287 286 285 284 284 285 282 277 275 276 274 269 270 265 270 266 262 265 269 274 277 277 279 289 291 294 296 301 302 296
65 106 192 261 292 290 286 282 288 290 292 291 292 290 288 286 285 284 282 281 282 279 277 273 270 265 256 261 248 248 253 265 268 273 274 278 287 288 295 302 302 299 309
140 99 275 289 286 302 289 282 287 293 296 296 294 293 291 286 284 282 282 283 282 280 284 276 271 265 262 262 259 256 255 254 258 268 272 275 280 293 302 300 297 307 304
Height
1569 1571 1575 1575 1577 1578 1578 1580 1579 1580 1579 1579 1578 1579 1579 1578 1577 1579 1578 1578 1577 1575 1575 1576 1575 1575 1574 1574 1574 1573 1573 1572 1570 1569 1568 1567 1566 1564 1562 1560 1558 1556 1555
1570 1572 1574 1576 1576 1577 1578 1578 1580 1580 1580 1579 1579 1578 1579 1577 1577 1578 1580 1575 1576 1575 1574 1575 1575 1575 1574 1573 1572 1572 1571 1570 1569 1568 1568 1567 1565 1562 1561 1560 1558 1556 1554
1569 1572 1572 1574 1574 1575 1577 1578 1577 1578 1579 1580 1579 1577 1578 1577 1577 1576 1579 1577 1574 1573 1574 1573 1573 1572 1572 1571 1571 1570 1570 1569 1568 1567 1566 1565 1563 1562 1560 1558 1557 1555 1553
1567 1569 1570 1571 1572 1573 1574 1575 1576 1577 1578 1578 1578 1579 1578 1576 1574 1575 1576 1576 1577 1572 1571 1570 1570 1570 1569 1568 1568 1568 1567 1566 1565 1564 1563 1562 1561 1560 1558 1556 1555 1553 1552
1564 1565 1567 1569 1571 1571 1571 1572 1573 1575 1576 1577 1576 1576 1576 1576 1573 1574 1574 1573 1573 1573 1573 1567 1567 1566 1565 1565 1565 1564 1563 1563 1562 1561 1560 1560 1558 1557 1555 1553 1552 1551 1549
1560 1562 1565 1568 1567 1567 1567 1568 1569 1570 1573 1574 1574 1574 1574 1573 1571 1571 1571 1570 1571 1569 1569 1568 1565 1562 1561 1561 1560 1560 1559 1558 1557 1557 1556 1555 1554 1552 1551 1549 1548 1547 1546
1558 1558 1561 1563 1562 1563 1564 1564 1565 1567 1568 1569 1571 1572 1570 1567 1566 1566 1567 1566 1567 1566 1566 1565 1564 1563 1560 1557 1556 1554 1553 1553 1552 1551 1550 1549 1548 1547 1546 1545 1544 1543 1542
1555 1555 1558 1560 1558 1560 1559 1559 1561 1563 1565 1566 1568 1568 1567 1567 1562 1560 1561 1562 1561 1562 1561 1560 1559 1559 1557 1557 1554 1550 1548 1548 1546 1546 1545 1544 1543 1543 1541 1540 1539 1538 1537
1550 1552 1554 1556 1554 1556 1553 1555 1557 1559 1561 1562 1562 1564 1563 1562 1561 1560 1555 1556 1557 1558 1557 1557 1556 1555 1554 1552 1551 1549 1542 1540 1540 1540 1539 1538 1537 1536 1536 1535 1534 1532 1531
1546 1545 1548 1547 1551 1552 1549 1551 1553 1555 1556 1558 1558 1558 1558 1558 1559 1556 1555 1551 1551 1551 1551 1551 1552 1551 1550 1548 1546 1543 1539 1536 1536 1535 1533 1532 1531 1529 1528 1527 1526 1524 1522
1539 1540 1541 1544 1546 1545 1545 1546 1548 1549 1552 1552 1551 1552 1554 1555 1555 1555 1551 1550 1550 1549 1547 1545 1545 1545 1544 1542 1541 1536 1533 1531 1530 1529 1527 1526 1524 1522 1520 1518 1517 1515 1514
1532 1534 1537 1538 1538 1540 1540 1540 1543 1544 1545 1546 1547 1548 1550 1551 1552 1551 1549 1547 1545 1544 1543 1542 1540 1539 1538 1537 1535 1531 1528 1527 1525 1522 1520 1519 1516 1513 1511 1510 1508 1507 1506
1528 1529 1531 1532 1531 1535 1534 1537 1537 1538 1540 1540 1541 1542 1544 1545 1547 1547 1544 1543 1541 1540 1538 1537 1535 1533 1532 1531 1530 1527 1522 1520 1518 1515 1512 1511 1509 1506 1504 1502 1500 1498 1498
1524 1523 1525 1526 1525 1527 1529 1529 1532 1535 1534 1535 1536 1536 1538 1539 1544 1544 1542 1540 1536 1534 1533 1531 1530 1529 1527 1526 1524 1521 1520 1516 1513 1509 1507 1505 1502 1499 1496 1493 1491 1490 1489
1517 1518 1518 1518 1519 1519 1524 1528 1528 1529 1531 1532 1531 1531 1533 1535 1538 1538 1537 1536 1533 1530 1527 1526 1525 1524 1522 1520 1519 1516 1514 1512 1508 1504 1502 1498 1495 1492 1489 1486 1484 1482 1480
1512 1513 1512 1514 1515 1518 1522 1520 1524 1523 1525 1526 1528 1528 1530 1532 1533 1533 1531 1531 1529 1527 1521 1521 1519 1518 1517 1515 1513 1509 1507 1505 1501 1498 1494 1491 1488 1485 1482 1480 1477 1474 1471
1507 1508 1510 1509 1510 1512 1513 1515 1518 1523 1522 1523 1524 1524 1525 1528 1527 1527 1526 1525 1523 1522 1517 1513 1513 1512 1510 1508 1506 1502 1501 1498 1496 1493 1489 1485 1482 1479 1475 1472 1468 1465 1463
1503 1504 1506 1506 1506 1509 1511 1513 1514 1517 1518 1520 1520 1520 1520 1521 1521 1521 1520 1518 1517 1515 1512 1507 1506 1504 1503 1501 1498 1496 1494 1492 1490 1487 1484 1480 1476 1472 1469 1465 1462 1459 1456
1498 1499 1501 1503 1504 1506 1507 1511 1514 1514 1515 1515 1516 1516 1515 1515 1515 1515 1514 1512 1510 1507 1505 1501 1497 1497 1495 1494 1491 1489 1486 1484 1483 1480 1477 1473 1470 1466 1462 1459 1457 1454 1451
1495 1496 1498 1500 1502 1504 1506 1509 1510 1510 1510 1510 1510 1510 1510 1510 1509 1509 1507 1505 1503 1499 1496 1493 1490 1488 1487 1486 1485 1482 1480 1479 1476 1474 1472 1469 1465 1462 1458 1454 1451 1448 1446
1493 1494 1496 1497 1500 1503 1505 1506 1506 1506 1505 1505 1505 1505 1505 1504 1503 1501 1500 1496 1495 1491 1488 1485 1481 1479 1478 1477 1477 1476 1474 1472 1470 1468 1466 1463 1461 1457 1454 1451 1448 1444 1441
1492 1494 1496 1499 1500 1501 1502 1502 1502 1501 1501 1501 1501 1500 1499 1498 1495 1493 1489 1487 1485 1482 1479 1477 1473 1471 1470 1470 1469 1468 1467 1466 1463 1464 1461 1457 1456 1451 1449 1446 1443 1439 1436
1493 1495 1497 1498 1498 1498 1498 1498 1498 1497 1496 1496 1495 1494 1492 1490 1487 1485 1481 1477 1474 1470 1468 1465 1462 1462 1461 1462 1461 1460 1461 1460 1458 1457 1456 1451 1450 1446 1444 1440 1437 1433 1429
1492 1493 1494 1495 1496 1497 1496 1495 1494 1493 1492 1490 1489 1487 1484 1481 1478 1476 1472 1467 1464 1461 1458 1454 1452 1451 1452 1453 1454 1454 1454 1453 1451 1450 1450 1445 1444 1441 1438 1434 1431 1427 1423
1490 1493 1494 1495 1496 1497 1493 1490 1489 1487 1485 1483 1481 1479 1476 1472 1468 1466 1461 1455 1452 1447 1447 1446 1444 1442 1442 1444 1446 1447 1446 1447 1444 1444 1444 1441 1439 1435 1433 1428 1426 1423 1418
1491 1491 1492 1493 1492 1493 1488 1485 1483 1481 1477 1474 1471 1468 1464 1461 1457 1454 1450 1445 1441 1437 1436 1435 1434 1432 1432 1433 1435 1437 1438 1438 1438 1437 1438 1437 1434 1432 1427 1423 1422 1419 1415